This demonstration page uses our WeatherBlox Daily Observations layout. Learn more.

Left ArrowRight Arrow

Hourly Observations for January 1, 2015

Temp ( °F °C ) Dew Point ( °F °C ) Humidity (%) Winds ( mph kmh ) Pressure ( in mb ) Visibility ( mi km ) Precip ( " mm )
12:09 am 00:09 Mostly Cloudy with Light Snow 32 undefined 30 -1.1 92 92 SE 3 6 30.00 1016 1 2 0.01 0.25
12:24 am 00:24 Cloudy with Light Snow 32 undefined 31 -0.6 96 96 WNW 7 11 30.03 1017 1 2 0.03 0.76
12:29 am 00:29 Cloudy with Light Snow 32 undefined 31 -0.6 96 96 NW 8 13 30.00 1016 1 1 0.04 1.02
12:51 am 00:51 Mostly Cloudy with Snow 32 undefined 31 -0.6 96 96 NW 9 15 29.92 1013 1 1 0.07 1.78
1:25 am 01:25 Cloudy with Light Snow 32 undefined 31 -0.6 96 96 NNW 12 19 30.06 1018 1 2 0.05 1.27
1:40 am 01:40 Cloudy with Light Snow 32 undefined 31 -0.6 96 96 NNW 9 15 30.06 1018 3 4 0.05 1.27
1:44 am 01:44 Cloudy with Light Snow 32 undefined 31 -0.6 96 96 NNW 8 13 30.06 1018 4 6 0.05 1.27
1:51 am 01:51 Cloudy with Light Snow 32 undefined 31 -0.6 96 96 N 8 13 29.93 1013 7 11 0.06 1.52
2:51 am 02:51 Mostly Cloudy 30 -1.1 29 -1.7 96 96 SE 8 13 29.97 1015 10 16 N/A
3:01 am 03:01 Mostly Cloudy 31 -0.6 29 -1.7 92 92 SSE 8 13 30.09 1019 10 16 N/A
3:47 am 03:47 Cloudy 30 -1 28 -2 93 93 N N/A 30.09 1019 10 16 N/A
3:51 am 03:51 Mostly Cloudy 30 -1.1 29 -1.7 96 96 N N/A 29.98 1015 10 16 N/A
4:31 am 04:31 Clear with Mist and Fog 25 -3.9 23 -5 92 92 E 5 7 30.12 1020 2 3 N/A
4:40 am 04:40 Clear with Mist and Fog 24 -4.4 23 -5 96 96 E 7 11 30.12 1020 3 5 N/A
4:51 am 04:51 Mostly Clear 24 -4.4 23 -5 96 96 E 3 6 30.01 1016 10 16 N/A
5:02 am 05:02 Mostly Cloudy 23 -5 22 -5.6 96 96 NE 5 7 30.18 1022 10 16 N/A
5:15 am 05:15 Cloudy 25 -3.9 23 -5 92 92 ENE 3 6 30.15 1021 10 16 N/A
5:51 am 05:51 Mostly Cloudy 27 -2.8 25 -3.9 92 92 ENE 6 9 30.02 1017 10 16 N/A
6:20 am 06:20 Cloudy 29 -1.7 27 -2.8 92 92 E 5 7 30.12 1020 10 16 N/A
6:32 am 06:32 Mostly Cloudy 30 -1.1 28 -2.2 92 92 N N/A 30.15 1021 10 16 N/A
6:40 am 06:40 Partly Cloudy 27 -2.8 26 -3.3 96 96 WNW 3 6 30.15 1021 10 16 N/A
6:51 am 06:51 Mostly Cloudy 24 -4.4 23 -5 96 96 NW 3 6 30.04 1017 10 16 N/A
7:27 am 07:27 Mostly Cloudy with Mist and Fog 23 -5 21 -6.1 92 92 E 7 11 30.21 1023 2 2 N/A
7:37 am 07:37 Mostly Cloudy with Mist and Fog 25 -3.9 24 -4.4 96 96 N N/A 30.18 1022 2 3 N/A
7:43 am 07:43 Mostly Cloudy with Mist and Fog 25 -3.9 24 -4.4 96 96 N N/A 30.18 1022 6 10 N/A
7:51 am 07:51 Mostly Cloudy 25 -3.9 24 -4.4 96 96 N N/A 30.06 1018 9 14 N/A
8:05 am 08:05 Cloudy 27 -2.8 26 -3.3 96 96 N N/A 30.18 1022 10 16 N/A
8:51 am 08:51 Cloudy 31 -0.6 30 -1.1 96 96 N N/A 30.06 1018 10 16 N/A
9:51 am 09:51 Cloudy 31 -0.6 30 -1.1 96 96 WNW 3 6 30.08 1019 10 16 N/A
10:06 am 10:06 Cloudy 31 -0.6 29 -1.7 92 92 N 3 6 30.18 1022 10 16 N/A
10:51 am 10:51 Partly Cloudy 32 undefined 29 -1.7 88 88 NNW 5 7 30.08 1019 10 16 N/A
11:51 am 11:51 Sunny 35 1.7 30 -1.1 82 82 W 6 9 30.04 1017 10 16 N/A
12:51 pm 12:51 Mostly Sunny 37 2.8 30 -1.1 76 76 W 8 13 30.01 1016 10 16 N/A
1:51 pm 13:51 Mostly Sunny 40 4.4 31 -0.6 70 70 W 8 13 29.99 1016 10 16 N/A
2:51 pm 14:51 Sunny 41 5 29 -1.7 62 62 WNW 10 17 29.98 1015 10 16 N/A
3:51 pm 15:51 Sunny 41 5 28 -2.2 60 60 WNW 15 24 29.98 1015 10 16 N/A
4:51 pm 16:51 Sunny 39 3.9 27 -2.8 62 62 WNW 14 22 30.01 1016 10 16 N/A
5:51 pm 17:51 Clear 36 2.2 26 -3.3 67 67 NW 9 15 30.01 1016 10 16 N/A
6:51 pm 18:51 Clear 33 0.6 27 -2.8 78 78 WNW 5 7 30.03 1017 10 16 N/A
7:51 pm 19:51 Clear 33 0.6 27 -2.8 78 78 WNW 8 13 30.04 1017 10 16 N/A
8:51 pm 20:51 Clear 33 0.6 27 -2.8 78 78 NW 8 13 30.03 1017 10 16 N/A
9:51 pm 21:51 Clear 32 undefined 28 -2.2 85 85 SSE 3 6 30.03 1017 10 16 N/A
10:51 pm 22:51 Mostly Clear 32 undefined 27 -2.8 82 82 N N/A 30.03 1017 10 16 N/A
11:51 pm 23:51 Cloudy 31 -0.6 28 -2.2 89 89 N N/A 30.02 1017 10 16 N/A

Powered by AerisWeather